Wind_Speed
11 10 9 7 7 7 7 6 7 8 9 9 9 9 8 9 10 11 12 11 9 8 7 7 8 7 7 8 8 8 8 11 13 12 12 13 14 16 16 18 20 21 22 22 22 22 23 24 25 26 28 31 32 32 31 29 29 30 29 26 24 24 24 25 27 28 27 25 23 20 19 17 16 16
12 11 11 10 9 10 10 8 8 8 8 8 9 9 8 9 10 11 12 13 12 10 9 8 7 8 8 8 9 9 9 13 16 15 14 13 14 18 19 19 20 21 22 22 22 22 22 24 26 27 29 31 32 34 34 32 30 30 31 29 26 24 25 26 28 29 29 27 26 23 22 21 19 18
12 12 13 13 12 13 12 11 10 9 8 7 7 8 9 10 11 12 12 13 12 10 10 10 11 11 12 12 13 15 14 15 17 18 17 16 18 22 23 22 22 23 23 24 24 24 23 24 26 27 28 30 32 35 35 35 33 32 33 32 29 26 25 26 28 30 31 29 28 27 25 24 22 20
12 13 15 15 14 15 12 9 10 10 9 9 8 7 8 9 12 13 13 14 14 13 13 14 14 14 15 16 15 16 15 14 16 17 16 16 19 21 21 20 24 25 25 24 25 26 26 26 26 27 28 28 30 33 36 37 36 36 35 34 33 31 28 28 28 30 32 31 30 30 29 27 25 23
13 14 14 15 16 16 12 9 8 8 9 10 9 9 8 8 11 12 13 15 16 15 14 13 14 14 16 17 15 13 13 14 14 15 15 15 17 17 16 17 21 24 24 24 24 26 27 28 27 28 28 29 29 30 32 36 37 38 38 37 36 35 32 30 30 30 32 33 32 32 32 30 27 25
13 14 13 14 16 16 14 11 8 7 8 7 7 9 10 10 11 12 13 15 16 17 16 15 15 15 16 16 14 14 15 17 17 17 16 16 16 16 16 16 18 21 23 23 24 25 26 28 28 27 28 29 30 30 30 33 36 38 40 40 40 39 35 33 32 32 32 34 34 34 34 32 30 28
13 14 14 14 15 15 14 13 10 8 8 7 7 10 11 11 13 14 16 17 17 18 19 18 17 15 16 18 17 16 17 19 20 20 19 18 17 16 17 17 18 21 24 24 23 23 25 27 27 27 27 28 31 32 31 31 34 37 40 41 42 41 39 37 36 34 34 35 35 36 35 33 32 31
14 14 14 14 14 14 13 13 11 8 9 9 9 10 11 11 13 15 17 17 17 18 19 20 20 18 19 21 20 19 19 19 18 19 19 18 17 17 17 17 17 20 25 26 24 23 23 25 26 26 26 27 29 31 31 31 32 35 39 41 42 42 42 42 40 37 37 37 37 37 36 34 33 33
15 14 14 13 13 13 13 12 11 10 11 12 11 11 11 11 12 14 15 16 17 18 19 20 21 21 22 22 23 22 22 21 19 17 17 16 16 16 16 16 17 20 23 25 25 24 24 24 25 26 25 25 27 29 30 30 31 33 36 39 40 39 40 43 43 41 40 39 39 38 36 34 34 34
15 14 13 13 13 13 13 12 12 12 14 14 13 12 12 12 13 15 16 18 19 19 20 20 20 20 20 21 23 23 22 22 22 21 19 18 16 16 17 16 16 18 19 21 22 24 26 26 25 25 25 25 25 27 29 30 31 31 33 35 36 34 34 38 42 45 45 42 40 40 39 37 35 34
15 14 14 13 13 13 12 12 12 13 14 14 13 13 13 13 14 15 17 18 19 21 21 21 20 19 19 19 20 21 20 22 23 22 20 17 14 13 14 14 14 15 17 19 21 23 26 29 28 26 25 25 25 26 27 29 31 32 32 33 34 34 32 32 35 42 47 46 42 41 41 41 37 35
16 16 15 14 14 14 14 14 14 15 15 14 15 14 14 14 15 16 17 17 18 20 21 21 20 19 19 19 19 19 18 18 18 16 15 15 14 13 14 14 14 15 15 17 19 21 23 28 31 29 27 26 26 27 27 28 29 31 32 33 33 34 33 31 30 33 39 46 49 46 45 45 41 37
16 16 15 16 16 16 16 17 17 17 17 17 17 16 15 15 16 17 17 17 18 19 20 20 20 19 19 19 19 18 16 15 15 15 16 19 19 18 17 17 17 17 17 17 18 18 18 21 27 31 31 29 29 28 28 29 29 30 31 33 34 33 32 31 31 30 31 38 46 48 48 50 47 40
15 16 16 17 19 19 18 18 18 18 18 19 19 19 18 18 18 18 19 19 19 19 20 21 20 20 20 19 18 19 19 18 18 18 19 20 19 17 18 18 17 16 17 17 17 17 16 17 22 26 29 31 32 31 30 29 29 30 31 32 34 35 33 32 32 32 31 31 36 40 45 50 51 44
14 14 15 17 20 21 19 18 20 21 21 21 22 22 22 21 21 22 22 22 22 21 22 22 21 22 22 20 19 19 20 20 19 19 17 17 18 17 17 18 15 14 16 17 17 17 16 16 18 19 21 23 25 30 33 31 29 30 31 32 34 35 35 34 33 32 32 30 31 33 37 43 47 47
12 13 16 18 20 21 20 20 21 21 22 23 25 26 25 25 24 24 25 25 25 24 24 24 23 23 23 22 20 19 19 18 18 18 17 17 18 17 18 18 16 15 16 16 17 18 17 16 18 18 18 17 19 26 33 31 28 29 31 33 34 35 36 37 36 35 34 32 32 32 32 34 39 46
15 16 16 17 17 18 19 21 21 20 20 22 26 28 28 27 27 27 27 27 27 27 28 28 29 27 25 24 22 19 18 19 19 19 19 19 19 19 19 19 18 17 16 15 17 20 19 17 18 19 17 16 20 27 32 30 27 28 30 31 32 34 35 36 37 38 38 37 36 34 32 32 34 42
18 18 17 17 17 17 18 18 19 21 23 25 26 26 26 26 26 27 28 27 27 27 27 30 32 30 29 29 26 23 21 20 21 22 22 21 20 21 22 22 21 20 19 16 18 21 21 18 19 19 17 17 23 29 32 31 28 26 27 27 28 30 32 33 34 36 38 40 39 36 34 34 34 38
17 16 17 19 19 19 19 19 22 25 27 29 29 29 29 28 27 27 25 23 23 23 24 27 28 26 26 27 28 27 24 24 24 24 24 23 22 23 25 25 24 23 22 20 21 24 23 19 19 19 17 19 25 30 32 31 29 27 26 24 23 24 26 28 31 33 36 40 39 37 36 36 36 38
15 15 17 19 20 20 21 22 26 30 31 31 32 31 30 29 27 26 24 24 26 27 27 29 29 29 27 27 28 27 25 26 27 25 24 23 22 23 24 25 25 25 25 25 25 26 24 20 20 20 18 19 24 26 27 31 29 28 29 27 23 21 20 23 27 29 33 37 38 37 36 37 38 40
14 15 18 21 23 24 25 25 28 32 33 33 33 32 30 28 26 25 24 24 26 28 29 31 32 34 34 35 36 35 33 32 31 30 28 25 23 25 27 28 27 25 24 23 22 24 25 21 20 20 19 22 26 24 26 32 31 27 28 30 27 23 20 20 23 25 27 31 31 30 31 33 35 39
15 16 19 24 28 29 28 28 31 34 34 33 32 30 28 26 25 24 23 23 24 25 28 30 31 31 31 32 34 36 37 37 36 38 37 30 27 30 32 30 28 26 25 23 20 23 25 22 20 20 20 24 28 28 29 31 30 27 27 29 29 27 24 22 22 22 22 24 24 24 24 25 29 35
15 16 19 23 27 28 29 30 34 36 34 32 30 26 23 25 25 23 22 23 24 24 25 25 26 25 25 25 26 27 28 30 32 38 40 34 31 34 34 31 29 29 26 21 20 24 26 22 21 22 21 21 24 26 28 26 23 23 24 26 27 26 25 25 23 22 21 20 21 21 21 23 28 34
17 17 19 20 22 26 29 32 34 35 34 35 33 27 23 25 24 22 22 24 25 26 25 25 25 24 23 23 23 23 23 23 25 29 32 31 31 34 34 31 30 31 27 19 18 23 25 23 22 22 22 22 20 20 23 22 18 16 18 21 24 24 24 24 24 23 22 21 20 20 20 22 26 31
18 19 20 19 21 26 30 32 35 36 36 36 35 30 28 28 28 28 29 28 26 27 27 25 25 26 24 23 23 22 22 23 24 26 27 28 29 31 33 32 32 33 30 22 20 22 22 22 23 22 22 23 21 18 19 21 19 16 14 16 19 20 21 21 21 22 22 22 22 20 19 21 25 28
20 21 21 21 23 28 32 34 35 36 35 33 33 32 31 31 30 30 30 27 25 25 24 23 24 24 24 23 22 21 22 23 25 27 27 27 27 28 30 31 32 32 30 24 23 25 24 23 23 21 21 22 22 21 20 21 22 20 17 15 15 16 17 18 19 21 21 22 23 21 20 21 23 24
22 23 22 22 26 30 32 32 33 32 31 30 30 29 28 26 26 27 26 24 24 24 24 25 26 25 25 24 23 22 23 23 22 23 24 25 25 26 28 30 31 31 29 26 24 25 26 26 25 23 22 22 21 20 18 18 21 21 19 17 15 14 15 16 17 20 21 21 23 22 20 20 20 22
24 24 22 24 27 30 30 31 30 29 26 25 24 24 23 22 22 23 23 22 23 25 26 26 28 28 27 27 27 26 25 23 21 20 21 22 23 25 27 29 31 32 32 31 29 27 27 28 26 24 24 23 23 22 17 15 18 20 18 16 16 15 16 16 17 19 20 21 22 22 22 22 23 24
25 26 26 29 30 30 29 28 26 23 21 20 21 22 21 21 21 20 20 20 22 24 25 26 27 27 26 25 26 25 23 22 21 21 20 21 22 23 24 26 28 30 32 33 33 31 31 30 28 26 25 24 26 26 22 16 17 19 17 15 15 16 17 17 18 18 18 19 21 22 22 23 24 24
27 28 31 31 28 26 25 23 20 19 19 20 20 19 19 19 19 18 18 19 20 22 24 24 25 25 24 22 21 22 22 22 24 24 23 22 22 22 23 26 28 30 31 32 33 33 33 32 30 29 29 28 27 27 25 21 20 19 18 16 16 16 17 18 19 18 18 18 19 20 20 21 22 22
28 29 29 26 22 20 20 19 18 19 20 19 18 17 17 17 17 17 18 20 22 23 24 23 24 24 23 22 22 23 23 23 25 27 27 27 27 26 27 29 31 31 30 30 31 33 35 35 32 31 32 33 31 29 26 23 22 21 20 19 18 17 16 17 20 20 19 18 19 20 21 22 22 21
28 26 21 18 16 16 16 16 17 18 18 18 17 17 18 18 18 18 20 22 24 25 24 24 25 26 25 26 27 26 25 25 28 30 31 31 30 29 29 31 32 31 29 28 28 30 33 36 36 36 35 34 34 32 29 26 24 22 21 21 20 18 17 18 21 22 21 21 22 23 24 24 23 21
26 20 15 14 14 14 15 16 17 17 18 18 18 18 18 18 19 20 20 21 23 24 25 26 27 27 27 28 29 28 28 30 31 31 31 30 28 26 28 30 32 31 31 30 28 28 29 31 33 36 36 35 33 32 30 28 25 23 22 21 21 21 20 19 21 23 24 24 25 26 26 24 23 21
20 15 14 15 15 15 16 17 17 18 18 18 19 19 18 18 20 21 22 22 23 24 25 27 28 28 29 30 30 29 29 31 30 29 28 28 27 26 26 29 30 30 30 30 28 28 28 28 27 28 31 31 31 31 31 29 26 24 24 23 22 21 22 22 22 24 25 25 28 30 29 26 24 23
14 12 14 15 15 15 17 18 19 20 20 20 20 20 19 19 20 20 21 22 23 24 25 26 28 29 30 30 30 30 30 30 29 28 27 26 26 25 25 27 28 29 29 29 28 27 27 27 27 26 27 27 28 29 30 30 26 23 23 23 22 22 23 23 23 25 27 28 29 31 32 29 25 23
12 12 14 14 15 16 17 19 19 20 20 19 19 19 20 21 22 21 22 23 23 23 25 27 28 29 29 29 29 29 29 29 28 28 27 26 26 26 26 26 27 26 27 28 28 27 26 26 27 27 26 26 26 26 26 29 29 26 25 24 23 23 24 24 23 25 28 30 31 33 33 30 26 26
12 13 14 14 15 16 17 18 19 18 18 19 20 21 23 24 25 25 24 24 24 24 25 26 27 27 27 27 27 27 28 28 28 27 27 26 26 26 26 27 27 27 28 29 28 28 28 27 28 27 25 25 26 24 24 28 31 30 29 27 24 24 26 26 25 27 29 30 32 34 33 32 31 30
13 14 14 15 15 16 17 18 18 19 19 21 23 26 27 26 27 27 25 24 24 24 24 24 25 25 25 25 25 25 26 27 28 27 26 26 25 25 25 26 26 26 26 27 27 27 28 29 30 29 27 26 25 23 24 29 30 30 30 29 26 25 28 29 28 29 30 31 31 31 29 29 31 29
13 14 14 15 15 16 17 18 19 21 23 25 27 29 30 29 28 27 25 23 22 23 23 24 24 24 24 24 23 24 25 27 27 27 26 25 24 24 24 23 23 22 23 24 24 25 27 29 30 30 29 28 25 21 22 26 29 29 29 27 25 25 29 30 30 31 32 32 32 30 28 28 29 28
13 13 14 14 15 16 18 20 22 25 27 28 29 29 29 29 28 26 24 22 22 22 23 23 22 22 22 22 22 22 24 26 26 26 26 24 23 23 22 21 21 21 20 21 22 23 25 26 26 26 26 26 25 22 21 23 26 27 26 25 22 21 24 26 28 31 34 35 34 33 33 33 32 30
14 14 14 14 15 18 20 23 26 28 28 29 29 29 29 28 27 25 23 22 21 20 20 20 19 19 20 20 20 21 23 25 25 25 25 23 22 22 21 21 19 18 19 20 22 23 23 21 21 21 22 23 25 25 24 24 24 25 25 25 22 19 20 22 25 28 32 35 36 36 37 36 35 33
14 15 15 15 16 21 24 27 28 29 29 29 29 29 29 29 27 25 23 21 19 18 17 17 17 17 17 18 18 20 22 24 25 25 24 22 21 21 21 20 19 18 18 20 22 22 21 19 17 18 20 24 27 28 27 27 27 27 27 26 23 21 22 24 25 27 30 34 38 40 40 38 36 34
15 16 16 17 19 24 28 29 29 29 29 29 29 30 30 30 28 25 22 20 18 17 16 15 15 15 15 15 15 17 20 22 23 23 22 20 19 20 20 19 18 18 19 20 21 21 21 18 16 17 20 25 29 29 29 29 29 30 30 28 26 26 27 28 28 29 31 34 36 37 38 39 37 35
16 16 18 21 24 27 28 29 29 29 29 29 29 29 30 30 29 26 23 21 19 17 16 15 14 13 12 13 13 15 18 20 20 20 19 17 16 17 17 16 16 17 19 19 19 19 19 17 15 16 21 27 30 30 29 30 32 33 33 32 31 32 32 31 31 31 32 31 29 29 30 31 31 31
16 17 21 24 26 27 29 29 28 29 29 28 28 29 29 29 28 26 23 22 20 18 16 14 12 11 10 10 11 13 15 16 16 15 15 14 14 14 14 15 16 17 18 18 17 17 16 15 15 19 25 28 29 28 29 32 34 35 35 34 33 33 33 33 34 35 33 30 26 23 23 23 24 24
Wind_Direction
6 7 10 8 357 348 340 325 315 310 304 297 291 286 278 275 283 291 295 292 283 283 289 289 288 282 272 271 272 275 281 277 271 271 273 272 267 260 250 243 243 243 244 246 246 244 242 241 240 238 236 235 238 242 243 244 245 243 243 246 245 242 242 241 236 234 234 235 237 238 237 238 240 243
359 0 1 3 359 351 349 342 335 330 319 310 299 289 279 268 270 277 284 286 282 278 279 277 279 281 279 283 285 278 273 272 270 267 263 265 269 266 256 245 240 241 243 244 244 242 237 235 236 236 236 235 236 240 242 243 243 246 248 248 245 243 243 241 237 234 233 234 236 238 239 238 237 239
352 353 355 358 354 349 349 345 341 339 331 321 306 289 283 275 270 269 273 279 278 276 279 272 265 272 278 280 277 275 276 276 273 271 267 266 267 264 261 255 249 248 249 248 248 246 241 235 233 233 233 233 234 237 240 242 241 243 247 247 244 242 243 243 239 235 233 233 235 237 239 239 237 236
346 349 350 350 347 347 347 338 332 333 329 328 319 298 287 281 279 277 273 274 274 274 278 278 275 275 275 276 278 281 283 278 275 278 276 272 268 266 266 265 261 257 254 254 254 252 249 244 239 237 235 234 234 235 238 240 240 240 243 245 243 240 241 243 241 235 233 234 235 236 237 238 237 236
339 344 345 341 339 342 342 336 327 317 315 323 320 309 303 290 285 284 278 278 281 281 280 279 279 278 278 281 284 284 279 272 271 275 274 273 273 274 272 268 267 265 259 255 257 256 254 251 248 244 241 238 238 238 238 240 241 242 242 243 243 240 238 241 241 236 234 235 235 236 237 236 236 236
327 332 334 332 330 333 334 336 330 303 300 306 295 290 294 289 287 287 284 280 282 285 285 282 282 283 283 283 281 278 275 273 272 272 272 273 274 274 271 265 266 268 263 256 256 257 256 254 253 251 248 243 242 242 242 242 243 244 244 243 243 243 240 239 240 237 236 235 235 236 238 237 236 235
315 320 324 325 325 327 328 328 324 309 304 304 290 285 288 288 288 290 293 291 288 288 290 292 292 290 286 286 287 286 282 280 280 278 276 275 273 272 269 266 265 265 264 260 256 256 257 255 255 255 254 249 245 245 245 246 246 246 245 244 243 244 242 240 239 238 236 235 235 236 239 239 237 235
308 313 317 319 319 321 320 319 318 307 298 298 294 290 291 291 289 290 295 296 293 290 291 295 296 294 291 292 294 294 292 292 291 286 283 279 276 273 269 268 267 263 265 265 258 254 255 255 255 256 256 255 251 248 246 247 248 247 246 245 244 242 241 240 239 237 236 235 234 235 238 239 238 235
305 309 312 314 314 316 316 314 308 296 292 294 292 287 286 285 284 284 286 288 286 284 285 289 293 294 295 295 295 296 297 297 294 289 285 279 274 272 269 266 263 262 267 271 263 255 252 253 253 253 255 256 255 253 249 248 248 247 247 248 246 243 241 240 238 236 235 235 234 236 238 239 238 235
302 306 307 308 309 311 312 309 303 298 298 297 292 286 282 280 278 278 281 284 284 283 282 284 288 290 291 292 293 296 296 296 296 295 291 285 276 270 269 267 264 263 268 273 270 261 253 251 252 251 252 253 255 256 253 250 249 249 248 248 246 244 242 240 238 237 237 236 235 236 238 239 238 236
300 302 303 305 307 308 307 303 300 298 298 295 291 286 282 279 277 277 280 283 283 284 284 284 284 285 286 286 288 292 293 292 295 296 295 292 285 274 268 265 263 262 264 269 275 270 257 250 249 250 250 251 252 255 256 254 251 250 249 248 245 243 242 243 243 242 241 239 237 237 239 239 237 235
296 300 303 305 306 306 304 301 299 297 295 291 287 284 280 276 276 276 277 278 279 281 282 282 282 282 282 281 283 286 287 287 289 289 283 280 279 273 268 266 263 261 261 264 270 274 266 255 250 250 251 251 251 251 254 256 254 251 249 248 247 245 243 245 248 247 244 242 240 238 239 240 238 234
296 300 303 303 303 303 303 301 300 299 298 295 293 290 282 274 272 273 272 273 273 275 276 277 278 279 278 279 280 280 278 276 278 277 273 275 277 275 271 267 263 259 261 262 261 266 268 262 255 252 252 253 252 250 251 253 255 254 250 248 248 248 246 246 247 248 246 246 245 243 243 243 240 235
298 302 303 302 302 303 302 300 300 299 298 296 295 293 288 281 275 270 267 267 268 270 271 272 273 273 273 272 273 274 274 275 275 276 276 277 278 276 271 268 264 262 262 262 261 261 260 261 261 257 254 256 256 254 252 250 252 253 251 248 247 248 247 245 246 247 248 248 249 248 248 248 244 238
298 300 300 300 302 305 306 303 304 306 304 301 297 294 290 287 282 277 272 269 266 265 266 268 268 268 269 269 268 269 272 274 274 274 274 273 272 270 268 267 266 262 257 254 258 261 258 257 260 258 254 255 258 256 253 252 253 254 252 249 246 246 247 246 246 248 249 249 248 247 249 250 248 243
291 290 293 297 301 303 304 304 306 309 309 308 306 302 298 292 287 283 279 275 270 267 265 265 265 264 266 267 266 266 267 269 271 270 268 267 267 265 264 264 262 259 260 259 258 258 258 257 260 261 257 253 254 257 255 253 253 254 253 251 248 246 247 247 248 248 249 250 249 246 244 247 249 247
292 291 293 294 296 298 301 306 308 308 306 306 307 306 303 299 295 290 285 281 277 272 266 262 261 261 263 264 264 263 262 263 265 266 265 265 265 263 262 264 262 258 259 264 264 260 257 254 256 260 261 257 256 258 257 251 247 248 250 251 251 249 247 247 248 249 249 249 249 245 242 242 246 248
296 295 292 291 294 296 298 300 301 301 304 306 305 303 299 296 293 291 289 287 284 279 273 268 265 263 260 260 259 258 258 261 264 266 265 264 264 265 262 260 261 258 252 256 265 265 259 253 254 255 256 257 256 256 257 251 243 241 245 247 250 251 249 248 249 249 248 248 246 244 242 240 242 247
297 294 293 296 299 301 300 299 299 302 306 306 304 302 298 294 290 287 283 278 275 272 270 270 269 266 262 260 259 256 255 258 262 264 265 264 264 265 263 259 259 258 253 252 256 260 260 255 254 254 250 253 256 257 260 257 244 237 240 244 247 251 252 250 249 249 248 245 241 238 236 235 237 241
292 286 287 294 298 300 301 301 302 304 306 305 304 302 299 295 290 285 278 274 273 271 266 260 255 254 254 254 254 252 248 247 248 252 259 262 263 265 264 262 262 259 256 252 250 255 259 255 253 253 247 249 254 257 263 263 252 241 242 247 249 251 254 255 253 251 249 244 237 231 230 233 235 238
285 280 282 291 297 301 302 300 301 303 304 303 303 301 298 293 287 283 280 278 279 279 276 270 262 257 254 251 249 248 244 241 241 245 253 257 258 261 262 263 262 259 255 251 247 251 256 253 251 255 250 248 253 256 261 264 262 255 249 248 249 250 252 256 258 254 249 245 241 236 234 237 238 237
284 283 285 294 301 304 303 300 300 302 301 301 302 299 296 292 286 282 281 279 278 278 278 278 276 272 268 264 260 256 251 246 241 242 248 253 256 258 259 261 263 261 255 250 245 248 252 250 247 251 252 252 256 260 263 264 266 264 256 249 247 247 246 250 255 254 247 242 240 238 235 236 237 236
285 284 287 295 301 303 300 298 299 300 300 302 303 299 291 287 284 282 281 280 279 277 274 274 274 274 275 274 274 270 264 258 250 244 245 249 252 255 257 257 259 260 256 249 242 245 249 249 246 245 246 250 256 263 267 268 268 264 256 248 244 243 242 244 246 249 249 241 231 226 226 228 231 231
287 287 288 293 295 295 295 295 296 297 298 301 302 297 286 282 282 281 279 275 272 271 271 271 269 269 269 267 266 266 263 261 258 253 250 247 246 250 253 253 252 254 254 249 242 245 249 248 246 244 242 245 250 257 264 267 265 257 248 242 239 237 237 240 240 242 246 240 227 219 220 226 230 229
289 289 289 291 290 288 288 288 289 291 295 298 297 291 284 282 281 280 278 275 271 269 270 270 269 268 267 265 262 261 259 256 254 254 252 249 246 246 249 250 250 252 253 247 238 243 250 248 245 244 244 244 245 247 255 261 260 253 244 238 236 234 233 234 234 235 236 232 221 214 216 223 225 226
290 290 291 292 287 284 284 285 287 290 292 292 289 287 285 284 283 280 278 275 273 271 270 269 268 267 266 264 261 259 259 258 255 252 251 249 248 247 246 247 248 250 253 249 239 240 247 248 245 243 243 245 243 239 247 260 263 258 250 241 236 233 229 225 222 223 224 221 215 209 211 218 220 220
295 294 292 288 284 284 287 288 289 290 290 287 285 285 284 282 280 279 275 272 270 269 268 266 265 264 263 262 261 259 259 259 256 254 252 250 249 249 248 248 248 249 251 250 244 242 246 247 245 241 242 246 244 236 239 254 262 259 250 240 236 234 229 222 216 213 212 212 212 208 206 209 210 209
301 297 292 291 294 297 298 298 299 298 298 295 292 291 290 288 286 280 273 269 268 268 267 265 264 264 263 260 259 259 258 258 257 255 254 252 250 250 250 250 250 251 251 249 245 243 244 246 244 241 241 244 244 241 239 241 250 255 249 236 232 232 229 224 217 211 208 207 206 203 200 198 198 199
313 309 307 308 311 311 309 308 308 305 303 301 298 298 298 296 290 280 272 270 268 265 265 264 264 264 263 261 260 260 259 259 259 256 255 254 252 251 252 251 250 250 250 249 246 243 242 244 243 242 241 241 241 243 243 235 236 245 247 237 233 233 229 222 214 209 208 206 202 200 197 195 194 195
322 318 315 314 313 312 311 310 305 301 301 302 300 298 297 293 287 279 273 271 269 266 266 266 264 264 264 263 263 263 261 261 261 260 258 257 254 253 252 253 253 251 250 248 246 243 241 241 242 242 241 238 235 236 238 237 235 238 242 241 237 231 227 221 213 206 205 204 201 198 194 189 188 191
320 317 314 312 312 311 309 307 304 304 306 305 301 298 294 289 283 277 273 271 270 270 269 266 265 267 267 267 266 265 262 261 262 263 262 260 259 259 257 254 254 253 251 249 247 244 241 238 238 238 238 237 233 229 231 240 243 240 241 244 241 234 229 223 215 206 200 197 194 189 184 182 183 188
323 320 315 311 311 309 306 305 306 305 304 300 296 294 292 288 283 279 275 273 272 271 270 270 270 269 268 267 267 266 263 261 263 267 267 265 265 264 260 256 254 253 251 249 247 247 246 242 238 236 235 237 237 233 234 242 245 240 239 241 240 235 228 222 216 207 197 191 187 181 179 181 183 184
325 321 313 309 310 309 308 309 308 306 305 302 298 295 293 289 286 283 279 277 276 274 272 272 272 268 266 267 268 266 265 265 267 270 269 266 264 262 258 255 253 252 252 250 248 246 247 245 242 239 237 237 238 237 236 240 241 237 236 239 239 233 225 219 215 208 198 190 184 178 177 180 181 179
324 318 313 312 312 311 311 310 310 309 308 305 302 300 296 290 287 284 281 280 279 276 274 272 271 270 270 271 271 270 269 269 270 270 267 263 260 259 257 254 252 251 250 250 249 246 243 241 241 240 238 237 236 235 235 236 238 239 239 241 242 237 226 217 212 207 199 191 183 177 173 172 173 174
328 317 315 314 312 312 312 312 311 311 310 306 304 302 298 295 291 286 282 283 283 281 278 275 275 276 276 276 275 274 274 274 273 272 268 263 259 256 253 250 249 248 246 247 248 245 241 238 236 235 234 231 231 234 233 231 234 241 242 241 241 236 226 216 209 201 194 190 185 177 169 165 164 167
329 319 317 315 313 313 314 313 311 311 310 307 306 304 302 301 300 295 293 293 291 286 281 278 277 277 277 277 278 277 276 276 275 273 269 263 259 257 253 249 247 245 244 245 246 243 238 233 229 228 228 227 227 231 232 231 233 238 242 243 240 231 219 210 202 195 191 189 185 178 170 163 160 164
327 325 321 316 315 315 314 314 313 312 312 311 312 313 311 307 306 306 306 303 297 290 286 283 280 278 277 277 277 276 275 275 274 271 267 262 260 258 255 251 248 245 242 243 244 241 236 231 227 225 225 226 225 226 230 233 235 237 241 242 237 225 214 204 193 188 188 187 185 181 176 168 163 163
328 328 322 319 320 318 315 316 316 315 316 319 322 325 323 317 314 313 310 306 300 296 293 288 283 280 278 277 276 274 272 272 271 269 265 261 258 256 253 249 247 245 243 242 243 240 234 231 230 228 226 225 222 218 222 229 232 233 235 237 233 221 210 203 193 187 184 184 183 183 181 173 163 159
328 326 323 321 321 319 319 322 322 322 327 330 331 331 329 325 322 318 312 307 304 300 296 291 285 281 278 276 275 274 270 267 268 267 262 257 255 254 251 245 241 240 241 240 239 236 231 229 228 226 225 225 222 215 216 223 224 223 224 227 228 222 211 203 196 187 181 180 180 176 171 165 160 158
330 327 326 323 323 323 325 327 330 332 336 338 336 334 332 329 326 322 316 313 309 304 298 292 286 282 279 276 275 274 270 266 265 264 259 255 253 252 248 240 236 236 236 235 235 234 230 228 227 226 226 227 224 219 218 219 217 215 213 210 213 222 223 216 205 190 180 177 175 168 162 160 159 160
336 333 330 326 326 331 334 336 338 340 342 342 340 338 337 334 330 326 321 317 313 308 303 296 290 284 280 277 274 271 268 265 263 261 256 252 251 250 244 237 233 232 232 234 237 238 235 233 235 234 229 225 222 218 214 210 203 201 199 196 195 207 219 217 210 198 186 176 169 163 161 160 159 159
340 338 336 332 335 343 347 347 346 345 345 344 344 343 342 339 335 332 328 323 318 313 309 305 299 291 284 279 273 267 264 262 261 259 254 248 246 246 243 237 232 231 232 235 240 243 242 240 239 235 226 222 221 216 209 203 196 190 186 183 183 188 192 192 195 195 187 176 169 165 163 162 160 158
344 343 342 343 349 353 354 352 350 349 347 345 346 346 344 341 339 338 335 331 327 323 319 315 307 298 290 283 275 267 262 260 259 257 251 244 240 242 242 240 236 233 233 235 238 242 243 241 238 234 224 219 218 214 204 196 191 185 177 172 169 171 173 177 180 179 173 170 170 170 168 165 163 162
347 346 350 356 358 358 356 354 352 351 349 346 346 347 346 344 343 343 342 340 337 334 331 326 318 308 299 291 280 269 261 257 256 252 244 237 235 237 237 237 235 232 232 234 234 237 243 245 239 227 216 210 210 208 199 188 181 175 169 165 164 165 165 168 168 165 162 165 171 173 171 169 166 162
346 349 358 3 1 358 356 354 352 352 351 348 348 350 350 348 347 347 347 345 343 341 338 332 324 317 310 297 283 272 262 254 247 240 233 229 231 230 228 231 236 235 232 232 232 232 234 228 210 200 199 199 199 199 194 185 176 168 163 161 162 162 160 160 159 158 159 161 162 163 163 161 155 149
Height
1541 1540 1540 1539 1539 1538 1538 1537 1537 1536 1536 1535 1535 1535 1535 1535 1534 1533 1532 1531 1531 1532 1532 1532 1532 1532 1531 1530 1529 1529 1528 1527 1526 1527 1527 1526 1526 1526 1526 1526 1526 1526 1526 1526 1527 1527 1528 1528 1529 1529 1530 1530 1530 1530 1531 1532 1533 1534 1535 1536 1537 1537 1538 1538 1539 1541 1542 1543 1543 1543 1544 1544 1544 1545
1541 1540 1540 1539 1539 1538 1537 1536 1535 1535 1534 1533 1533 1533 1533 1533 1532 1532 1531 1530 1530 1529 1530 1531 1531 1530 1529 1528 1527 1527 1527 1525 1524 1524 1524 1524 1524 1523 1523 1523 1523 1524 1524 1524 1524 1524 1524 1525 1525 1526 1526 1527 1527 1527 1527 1528 1530 1531 1532 1533 1534 1535 1535 1536 1536 1537 1539 1540 1541 1541 1541 1541 1542 1542
1540 1540 1539 1539 1538 1537 1536 1535 1534 1533 1533 1532 1532 1531 1531 1531 1530 1530 1529 1529 1528 1528 1528 1528 1528 1527 1526 1526 1525 1524 1523 1523 1522 1521 1521 1521 1521 1520 1520 1520 1521 1521 1521 1521 1521 1521 1521 1521 1522 1522 1522 1523 1523 1524 1524 1525 1526 1527 1528 1529 1531 1532 1532 1533 1534 1535 1536 1537 1538 1538 1539 1539 1539 1540
1539 1538 1538 1537 1537 1536 1535 1535 1534 1532 1532 1531 1530 1530 1530 1529 1528 1527 1527 1527 1526 1526 1526 1525 1524 1524 1523 1522 1522 1521 1521 1520 1519 1518 1518 1518 1518 1517 1518 1518 1517 1517 1518 1518 1518 1518 1518 1519 1519 1519 1519 1519 1520 1520 1520 1521 1522 1523 1524 1525 1526 1527 1528 1529 1530 1531 1532 1533 1534 1535 1536 1537 1537 1537
1537 1537 1536 1536 1535 1534 1534 1534 1533 1532 1531 1530 1529 1528 1528 1528 1527 1526 1525 1524 1523 1523 1523 1522 1522 1521 1520 1519 1519 1519 1518 1517 1517 1516 1516 1516 1515 1515 1515 1516 1515 1514 1514 1514 1515 1515 1515 1515 1516 1516 1516 1516 1517 1517 1517 1517 1518 1519 1520 1521 1521 1522 1524 1525 1526 1527 1528 1529 1530 1532 1533 1534 1534 1535
1536 1535 1535 1534 1533 1533 1532 1532 1532 1532 1531 1530 1530 1529 1527 1526 1526 1524 1523 1522 1521 1520 1520 1519 1518 1518 1517 1516 1516 1516 1515 1514 1513 1513 1513 1513 1513 1513 1513 1513 1512 1511 1510 1511 1511 1511 1511 1512 1512 1512 1513 1513 1513 1514 1514 1514 1514 1515 1515 1516 1517 1518 1520 1521 1522 1523 1524 1525 1526 1527 1529 1531 1532 1532
1534 1534 1534 1533 1532 1531 1531 1530 1530 1530 1529 1529 1529 1528 1526 1525 1524 1522 1521 1520 1519 1518 1516 1516 1515 1515 1514 1513 1512 1512 1511 1510 1510 1509 1510 1510 1510 1510 1510 1510 1509 1508 1507 1507 1508 1508 1508 1508 1508 1509 1509 1509 1510 1510 1511 1511 1511 1511 1511 1511 1512 1514 1516 1517 1517 1519 1520 1521 1522 1523 1525 1527 1529 1529
1532 1532 1532 1531 1531 1530 1530 1529 1529 1528 1528 1527 1527 1526 1525 1524 1523 1521 1520 1518 1517 1516 1514 1513 1513 1512 1511 1510 1509 1509 1508 1507 1506 1506 1506 1506 1506 1507 1507 1507 1507 1505 1504 1504 1504 1505 1505 1505 1505 1505 1506 1506 1506 1507 1507 1508 1507 1507 1507 1507 1508 1510 1511 1512 1514 1515 1516 1517 1518 1519 1521 1523 1525 1526
1529 1529 1529 1529 1528 1528 1528 1527 1527 1526 1526 1525 1525 1524 1524 1524 1523 1521 1519 1517 1516 1515 1513 1512 1511 1509 1508 1507 1506 1506 1505 1504 1504 1504 1504 1504 1504 1504 1504 1504 1504 1502 1500 1500 1500 1501 1501 1501 1501 1502 1502 1502 1503 1503 1504 1504 1504 1504 1504 1504 1504 1505 1506 1508 1510 1511 1512 1513 1514 1515 1517 1518 1520 1522
1527 1527 1526 1526 1526 1526 1525 1525 1524 1524 1523 1522 1522 1522 1521 1521 1521 1519 1518 1516 1515 1513 1512 1510 1509 1508 1506 1505 1504 1503 1503 1502 1501 1501 1501 1500 1500 1500 1500 1500 1500 1499 1498 1497 1496 1497 1498 1498 1498 1498 1499 1499 1499 1500 1500 1500 1501 1500 1500 1501 1501 1502 1502 1503 1505 1506 1507 1509 1510 1512 1513 1514 1516 1518
1523 1524 1524 1524 1523 1523 1523 1522 1522 1521 1521 1520 1520 1519 1519 1518 1518 1516 1515 1514 1513 1511 1510 1509 1508 1506 1505 1504 1502 1501 1501 1500 1499 1499 1498 1498 1498 1498 1498 1497 1497 1497 1496 1495 1493 1493 1494 1494 1494 1494 1495 1495 1496 1496 1496 1496 1497 1497 1497 1497 1498 1498 1499 1500 1501 1502 1504 1507 1508 1508 1509 1510 1512 1513
1520 1520 1521 1521 1520 1520 1520 1519 1519 1518 1518 1518 1517 1517 1517 1516 1515 1514 1513 1512 1510 1509 1507 1506 1505 1504 1503 1502 1501 1500 1499 1498 1498 1498 1497 1496 1496 1496 1496 1495 1495 1494 1494 1493 1492 1491 1490 1490 1490 1491 1492 1492 1492 1492 1492 1492 1493 1493 1494 1494 1494 1495 1495 1496 1497 1497 1500 1502 1503 1504 1504 1505 1507 1508
1518 1518 1518 1518 1518 1517 1517 1516 1516 1515 1514 1514 1513 1513 1513 1513 1512 1511 1511 1510 1508 1507 1505 1504 1503 1502 1501 1500 1499 1499 1498 1497 1496 1496 1495 1493 1493 1493 1493 1492 1492 1491 1491 1490 1490 1489 1488 1487 1487 1487 1488 1488 1488 1488 1488 1488 1489 1489 1490 1491 1491 1491 1492 1493 1493 1494 1495 1496 1497 1499 1500 1501 1502 1503
1516 1516 1516 1515 1514 1514 1514 1513 1512 1512 1511 1510 1510 1509 1509 1509 1509 1508 1508 1507 1506 1505 1503 1502 1501 1499 1498 1497 1497 1496 1495 1495 1494 1493 1492 1490 1490 1490 1489 1488 1488 1488 1488 1487 1487 1486 1485 1485 1484 1484 1484 1483 1483 1484 1484 1484 1485 1485 1486 1486 1487 1487 1488 1489 1490 1491 1492 1492 1493 1495 1496 1497 1498 1500
1513 1514 1514 1513 1512 1511 1510 1510 1509 1508 1507 1506 1506 1505 1505 1504 1504 1504 1503 1503 1502 1502 1500 1499 1498 1496 1495 1495 1494 1493 1492 1492 1491 1490 1490 1489 1488 1487 1486 1486 1486 1485 1484 1483 1483 1482 1482 1482 1481 1480 1481 1480 1480 1479 1479 1480 1481 1482 1482 1482 1483 1483 1484 1485 1486 1487 1488 1489 1489 1491 1492 1493 1495 1497
1511 1511 1511 1511 1510 1508 1508 1507 1506 1505 1503 1502 1501 1500 1499 1499 1499 1499 1498 1498 1498 1497 1496 1495 1494 1493 1492 1491 1491 1491 1490 1489 1489 1488 1487 1486 1485 1485 1483 1482 1483 1482 1480 1479 1479 1479 1478 1479 1479 1477 1477 1477 1476 1474 1474 1476 1477 1478 1478 1478 1478 1479 1480 1481 1482 1483 1484 1485 1486 1486 1487 1488 1490 1492
1509 1509 1508 1508 1507 1506 1505 1504 1503 1503 1501 1499 1497 1495 1494 1493 1493 1492 1492 1492 1492 1492 1491 1490 1489 1489 1489 1488 1488 1488 1487 1486 1486 1485 1484 1483 1482 1481 1480 1479 1479 1479 1478 1476 1475 1474 1474 1475 1475 1474 1474 1474 1473 1470 1469 1471 1473 1473 1473 1474 1474 1475 1475 1476 1477 1478 1479 1480 1481 1482 1483 1484 1485 1486
1506 1506 1506 1505 1505 1504 1502 1501 1501 1500 1498 1496 1494 1493 1491 1489 1488 1487 1486 1486 1486 1485 1485 1483 1482 1483 1484 1483 1483 1484 1483 1483 1482 1481 1480 1479 1479 1478 1477 1476 1474 1474 1473 1473 1472 1469 1469 1470 1470 1470 1471 1471 1469 1465 1464 1466 1469 1469 1469 1470 1470 1470 1471 1471 1472 1473 1474 1475 1476 1477 1478 1479 1480 1482
1503 1503 1502 1502 1501 1501 1500 1498 1497 1496 1494 1492 1490 1489 1487 1486 1485 1484 1483 1482 1482 1481 1480 1479 1478 1478 1479 1478 1478 1478 1479 1479 1478 1478 1476 1475 1474 1473 1471 1469 1468 1467 1468 1469 1468 1465 1464 1466 1466 1466 1468 1468 1464 1462 1461 1461 1464 1465 1465 1466 1466 1466 1467 1467 1467 1468 1469 1469 1470 1471 1473 1474 1476 1477
1501 1500 1500 1499 1498 1497 1497 1495 1493 1491 1490 1488 1486 1484 1483 1481 1480 1479 1479 1478 1477 1476 1475 1475 1474 1474 1474 1473 1472 1472 1473 1473 1472 1472 1471 1470 1470 1468 1465 1464 1463 1463 1463 1463 1463 1461 1461 1462 1462 1461 1463 1463 1460 1459 1458 1456 1459 1461 1461 1462 1463 1463 1463 1463 1463 1463 1464 1464 1464 1466 1468 1469 1470 1472
1498 1498 1497 1496 1495 1494 1493 1492 1490 1488 1486 1484 1482 1480 1478 1477 1476 1475 1475 1474 1472 1471 1469 1468 1468 1467 1467 1468 1467 1467 1467 1467 1468 1467 1464 1465 1467 1464 1461 1460 1459 1459 1459 1459 1460 1459 1457 1459 1459 1458 1459 1458 1456 1456 1454 1452 1454 1457 1457 1458 1459 1460 1460 1460 1460 1460 1460 1460 1460 1462 1464 1465 1466 1468
1496 1495 1493 1492 1491 1490 1488 1487 1485 1483 1482 1480 1478 1476 1474 1473 1472 1471 1471 1470 1469 1468 1466 1464 1462 1461 1460 1460 1460 1460 1460 1461 1463 1462 1458 1460 1463 1460 1457 1456 1455 1454 1454 1455 1456 1455 1453 1455 1456 1455 1455 1454 1452 1451 1450 1448 1450 1452 1453 1454 1455 1456 1456 1456 1457 1457 1456 1457 1457 1459 1461 1462 1464 1465
1494 1493 1491 1489 1487 1485 1484 1482 1480 1479 1477 1476 1474 1473 1471 1469 1467 1467 1467 1466 1464 1463 1462 1460 1459 1457 1456 1455 1454 1453 1453 1454 1455 1454 1453 1456 1457 1453 1451 1452 1452 1449 1448 1450 1453 1451 1450 1451 1452 1451 1452 1451 1449 1447 1445 1445 1446 1447 1448 1450 1450 1451 1452 1453 1453 1454 1454 1454 1455 1455 1457 1458 1459 1461
1491 1490 1488 1487 1485 1482 1479 1478 1476 1474 1473 1471 1470 1469 1467 1464 1463 1463 1462 1460 1459 1458 1456 1455 1454 1452 1451 1451 1450 1449 1449 1448 1448 1448 1447 1449 1449 1447 1446 1447 1446 1443 1443 1447 1450 1448 1447 1448 1448 1448 1448 1447 1446 1444 1441 1441 1443 1443 1444 1445 1446 1447 1448 1449 1450 1451 1451 1452 1452 1453 1454 1455 1456 1458
1487 1486 1485 1484 1482 1479 1476 1474 1472 1470 1469 1467 1465 1463 1461 1459 1459 1458 1456 1454 1453 1451 1449 1448 1447 1446 1446 1445 1444 1444 1444 1443 1443 1442 1442 1442 1442 1441 1441 1441 1441 1439 1439 1443 1446 1444 1444 1444 1444 1444 1444 1444 1444 1442 1438 1438 1441 1441 1441 1442 1443 1443 1444 1445 1446 1447 1448 1449 1450 1451 1452 1453 1454 1457
1484 1482 1481 1481 1478 1474 1472 1470 1468 1466 1464 1461 1459 1457 1455 1454 1453 1452 1450 1448 1446 1445 1444 1443 1442 1441 1440 1440 1439 1439 1438 1437 1437 1437 1437 1437 1437 1436 1436 1436 1435 1434 1435 1439 1441 1440 1440 1440 1440 1441 1441 1440 1441 1440 1437 1436 1438 1439 1439 1440 1440 1441 1441 1442 1443 1443 1444 1446 1447 1448 1450 1451 1454 1456
1479 1478 1477 1476 1473 1470 1467 1465 1463 1460 1458 1456 1453 1452 1450 1449 1448 1447 1445 1443 1441 1440 1439 1438 1437 1436 1436 1435 1434 1434 1433 1433 1433 1432 1432 1433 1433 1432 1432 1431 1431 1430 1431 1434 1436 1436 1436 1435 1436 1437 1437 1437 1437 1436 1435 1435 1435 1436 1437 1438 1438 1439 1439 1440 1440 1440 1441 1443 1444 1446 1447 1450 1453 1456
1475 1473 1472 1470 1467 1464 1462 1459 1456 1454 1452 1450 1448 1447 1445 1444 1443 1441 1440 1438 1437 1435 1434 1433 1431 1431 1430 1430 1429 1429 1429 1429 1429 1428 1428 1428 1428 1428 1427 1427 1426 1426 1426 1428 1430 1431 1431 1431 1431 1432 1433 1433 1433 1433 1433 1433 1432 1433 1435 1435 1436 1437 1437 1438 1438 1438 1439 1440 1441 1443 1444 1447 1450 1453
1470 1468 1466 1463 1460 1458 1455 1453 1450 1448 1447 1445 1444 1442 1441 1440 1438 1437 1435 1434 1433 1431 1430 1429 1427 1426 1426 1425 1424 1424 1425 1425 1424 1424 1423 1423 1423 1423 1422 1421 1421 1421 1421 1422 1424 1425 1426 1426 1427 1428 1429 1430 1430 1430 1431 1431 1429 1430 1432 1433 1434 1435 1435 1436 1437 1437 1438 1439 1439 1441 1443 1445 1448 1451
1465 1463 1460 1458 1455 1453 1451 1449 1447 1446 1444 1442 1440 1439 1437 1436 1434 1433 1432 1431 1429 1427 1426 1425 1423 1422 1422 1421 1421 1421 1420 1419 1419 1419 1419 1418 1418 1418 1417 1416 1415 1415 1416 1417 1418 1419 1420 1421 1423 1424 1424 1425 1426 1427 1429 1428 1427 1427 1429 1430 1431 1432 1433 1434 1435 1435 1436 1438 1439 1440 1443 1445 1448 1450
1462 1460 1457 1455 1452 1450 1448 1447 1445 1443 1441 1439 1437 1436 1435 1433 1432 1430 1429 1427 1426 1424 1422 1421 1420 1419 1418 1417 1417 1416 1415 1414 1414 1414 1414 1413 1412 1412 1412 1411 1410 1410 1411 1412 1412 1413 1414 1416 1418 1419 1419 1420 1421 1423 1425 1425 1424 1424 1426 1428 1429 1430 1431 1432 1433 1433 1435 1436 1438 1440 1442 1444 1447 1449
1459 1457 1454 1453 1451 1449 1446 1444 1443 1441 1439 1437 1435 1433 1432 1430 1428 1427 1425 1424 1422 1420 1419 1417 1416 1415 1414 1413 1412 1412 1411 1410 1409 1409 1408 1407 1407 1407 1407 1406 1405 1406 1407 1407 1408 1408 1409 1410 1412 1413 1414 1416 1418 1419 1421 1422 1421 1422 1424 1425 1427 1428 1429 1430 1431 1432 1433 1435 1437 1438 1441 1443 1445 1448
1456 1454 1453 1451 1449 1447 1445 1442 1440 1438 1436 1434 1432 1430 1428 1427 1425 1424 1422 1420 1418 1416 1415 1413 1411 1410 1409 1408 1407 1407 1406 1405 1404 1404 1403 1403 1402 1402 1402 1401 1400 1401 1402 1402 1403 1404 1405 1406 1407 1409 1411 1413 1415 1416 1418 1418 1418 1419 1421 1423 1424 1425 1427 1428 1429 1430 1432 1433 1435 1437 1440 1443 1445 1447
1454 1453 1451 1449 1447 1445 1443 1440 1438 1436 1434 1431 1429 1427 1425 1423 1421 1419 1417 1416 1414 1412 1410 1408 1407 1406 1404 1403 1402 1402 1400 1399 1399 1399 1399 1398 1398 1398 1397 1396 1396 1397 1397 1398 1398 1400 1401 1402 1404 1406 1407 1410 1411 1413 1414 1415 1415 1417 1419 1420 1421 1423 1425 1427 1428 1429 1430 1432 1434 1435 1438 1441 1444 1446
1453 1451 1450 1448 1445 1443 1441 1438 1436 1433 1431 1428 1425 1423 1421 1419 1417 1415 1413 1411 1409 1407 1405 1404 1402 1401 1399 1398 1397 1396 1395 1395 1395 1394 1394 1393 1393 1393 1392 1392 1391 1392 1393 1394 1395 1396 1397 1399 1401 1403 1404 1406 1407 1408 1409 1411 1413 1414 1416 1418 1419 1421 1423 1425 1426 1427 1429 1431 1433 1434 1436 1439 1443 1445
1452 1450 1448 1446 1443 1441 1439 1436 1434 1431 1428 1425 1422 1419 1417 1414 1412 1410 1408 1406 1404 1402 1400 1399 1397 1396 1394 1393 1392 1391 1391 1390 1390 1389 1389 1389 1388 1388 1388 1387 1387 1388 1390 1390 1391 1393 1394 1396 1398 1399 1400 1402 1403 1404 1405 1407 1409 1411 1413 1415 1417 1419 1421 1423 1425 1426 1427 1429 1432 1434 1435 1437 1441 1444
1451 1449 1446 1444 1442 1439 1437 1434 1431 1428 1425 1422 1419 1416 1413 1410 1408 1405 1403 1401 1399 1397 1395 1394 1392 1390 1389 1388 1388 1387 1386 1386 1385 1385 1384 1384 1384 1384 1384 1383 1384 1385 1385 1387 1388 1390 1391 1392 1394 1396 1397 1399 1400 1401 1402 1403 1406 1409 1411 1413 1415 1417 1419 1420 1422 1425 1426 1428 1431 1433 1435 1436 1440 1443
1449 1447 1445 1442 1440 1438 1435 1431 1428 1425 1422 1419 1416 1413 1410 1407 1403 1401 1399 1396 1394 1392 1391 1389 1387 1386 1385 1384 1383 1383 1382 1381 1381 1380 1380 1380 1380 1380 1380 1380 1381 1381 1382 1383 1385 1386 1388 1389 1390 1392 1394 1395 1396 1398 1399 1400 1403 1406 1408 1410 1413 1415 1416 1417 1419 1422 1425 1428 1431 1434 1436 1438 1440 1444
1448 1446 1443 1441 1438 1436 1432 1429 1426 1423 1419 1416 1413 1409 1406 1403 1400 1397 1394 1392 1390 1388 1386 1385 1383 1382 1381 1380 1379 1378 1378 1377 1376 1376 1376 1376 1376 1376 1377 1377 1378 1379 1379 1380 1381 1383 1384 1385 1386 1388 1391 1392 1394 1396 1397 1398 1401 1404 1406 1408 1411 1412 1414 1415 1417 1420 1423 1426 1430 1434 1437 1440 1443 1445
1447 1444 1441 1439 1436 1434 1431 1427 1424 1421 1417 1413 1410 1407 1403 1400 1396 1394 1391 1388 1386 1384 1382 1381 1379 1378 1377 1375 1375 1374 1373 1372 1372 1372 1372 1372 1373 1373 1374 1375 1376 1376 1377 1378 1378 1379 1381 1382 1384 1386 1388 1390 1393 1395 1396 1397 1400 1402 1404 1407 1410 1412 1413 1414 1415 1418 1421 1425 1428 1432 1436 1439 1442 1445
1445 1442 1440 1437 1435 1432 1429 1426 1422 1418 1415 1411 1408 1404 1401 1397 1394 1391 1388 1385 1383 1381 1378 1377 1375 1374 1372 1371 1370 1370 1369 1368 1368 1368 1368 1369 1370 1370 1372 1373 1374 1374 1374 1375 1376 1377 1378 1380 1382 1384 1386 1388 1390 1392 1394 1395 1397 1400 1403 1406 1408 1411 1413 1414 1416 1417 1420 1423 1427 1431 1435 1438 1441 1444
1444 1441 1438 1436 1433 1430 1427 1424 1420 1416 1413 1409 1405 1402 1398 1395 1391 1388 1385 1382 1380 1377 1375 1373 1371 1369 1368 1367 1366 1366 1365 1364 1364 1364 1365 1366 1367 1368 1369 1370 1371 1371 1372 1373 1373 1375 1376 1378 1380 1381 1383 1385 1387 1389 1391 1393 1395 1398 1401 1404 1407 1410 1413 1415 1418 1419 1421 1423 1426 1429 1432 1436 1440 1443
1443 1440 1438 1435 1432 1429 1425 1422 1418 1415 1411 1407 1404 1400 1396 1392 1389 1386 1382 1379 1377 1374 1372 1370 1368 1366 1364 1363 1362 1362 1361 1361 1361 1361 1362 1363 1364 1365 1366 1367 1368 1369 1370 1370 1371 1372 1374 1375 1377 1378 1380 1383 1385 1387 1389 1391 1393 1396 1400 1403 1406 1409 1412 1416 1419 1422 1425 1427 1429 1431 1432 1435 1438 1441
1442 1440 1437 1434 1431 1428 1424 1421 1417 1413 1410 1406 1402 1398 1395 1391 1387 1383 1379 1376 1374 1371 1369 1367 1365 1363 1362 1360 1359 1358 1358 1357 1358 1359 1360 1361 1362 1363 1364 1365 1366 1367 1367 1368 1369 1370 1371 1373 1374 1376 1378 1380 1382 1385 1387 1390 1392 1395 1398 1401 1405 1408 1412 1416 1420 1424 1428 1431 1435 1437 1439 1440 1442 1444
1442 1439 1436 1433 1430 1427 1423 1419 1415 1412 1408 1404 1400 1397 1393 1389 1384 1381 1377 1374 1371 1369 1366 1364 1362 1361 1359 1358 1357 1356 1355 1355 1356 1357 1358 1359 1360 1362 1363 1363 1363 1364 1365 1366 1367 1368 1370 1371 1373 1375 1377 1379 1381 1384 1386 1389 1391 1395 1398 1401 1405 1408 1412 1417 1420 1424 1428 1433 1437 1440 1443 1444 1446 1448